www.pogodaiklimat.ru

Погода и климат >> Архив погоды >> Таиланд >> Suphan Buri


ПОГОДА в Suphan Buri

  • Прогноз погоды в Suphan Buri
  • Монитор погоды в Suphan Buri
  • Климат города

АРХИВ ПОГОДЫ в Suphan Buri

Время (UTC), дата Ветер
(напр.,м/с)
 
Видим.   Явления Облачность Т
(С)
Тd
(С)
f
(%)
Тe
(С)
Тes
(С)
Комфортность P
(гПа)
Po
(гПа)
Тmin
(С)
Tmax
(С)
R
(мм)
R24
(мм)
S
(см)
15 8.12 С 2 6000 м дымка 10/3 600 м
[Sc Ac und Cs]
+28.3 +24.1 78 +39 +39 очень
душно
1013.6 1012.6
18 8.12 В 2 6000 м дымка 10/4 600 м
[Sc Ac und Cs]
+27.7 +21.7 70 +36 +36 очень
душно
1013.2 1012.2
21 8.12 СВ 2 6000 м дымка 5/0
[Cs]
+25.4 +20.2 73 +31 +31 очень
душно
1012.5 1011.4
00 9.12 штиль 0 6000 м дымка 5/0
[Cs]
+23.5 +18.8 75 +28 +28 душно 1014.3 1013.2 +23.0
03 9.12 СВ 6 8000 м мгла 8/0
[Ac trans Cs]
+27.0 +19.4 63 +33 +35 очень
душно
1016.1 1015.1
06 9.12 штиль 0 9000 м мгла 5/1 600 м
[Cu hum Cs]
+29.6 +20.4 58 +36 +51 опасность
солнечного
удара
1013.0 1012.0
09 9.12 штиль 0 9000 м мгла 5/0
[Cs]
+30.2 +20.9 58 +38 +42 очень
душно
1011.1 1010.1
12 9.12 штиль 0 7000 м дымка 3/0
[Cs]
+27.7 +21.6 69 +35 +35 очень
душно
1013.3 1012.3 +31.0
15 9.12 штиль 0 6000 м дымка 3/0
[Cs]
+25.6 +21.7 79 +33 +33 очень
душно
1014.8 1013.8
18 9.12 штиль 0 5000 м дымка 3/0
[Cs]
+24.0 +21.7 87 +31 +31 очень
душно
1013.7 1012.6
21 9.12 штиль 0 4000 м дымка 3/0
[Cs]
+22.5 +21.0 91 +29 +29 очень
душно
1012.6 1011.5
00 10.12 штиль 0 3000 м дымка 3/0
[Cs]
+21.8 +20.4 92 +28 +28 душно 1014.4 1013.4 +21.4
03 10.12 штиль 0 6000 м дымка 3/0
[Cs]
+28.4 +21.2 65 +36 +47 очень
душно
1015.5 1014.5
06 10.12 С 1 8000 м мгла 3/0
[Cs]
+30.6 +20.7 56 +38 +53 опасность
солнечного
удара
1012.6 1011.6
09 10.12 штиль 0 8000 м мгла 3/0
[Cs]
+31.6 +22.2 58 +41 +45 опасность
перегрева
1011.2 1010.2
12 10.12 штиль 0 6000 м дымка 3/0
[Cs]
+28.9 +22.7 69 +38 +38 очень
душно
1012.4 1011.4 +32.5
15 10.12 штиль 0 5000 м дымка 3/0
[Cs]
+26.8 +23.4 82 +36 +36 очень
душно
1014.0 1013.0
18 10.12 штиль 0 3000 м дымка 3/0
[Cs]
+25.5 +24.0 91 +35 +35 очень
душно
1012.8 1011.8
21 10.12 штиль 0 2000 м дымка 3/0
[Cs]
+23.8 +22.5 92 +31 +31 очень
душно
1011.5 1010.5
00 11.12 штиль 0 800 м туман 3/0
[Cs]
+23.4 +22.2 93 +32 +32 очень
душно
1012.5 1011.5 +22.8
03 11.12 Ю 2 4000 м дымка {туман} 3/0
[Cs]
+29.4 +23.0 68 +39 +47 очень
душно
1014.3 1013.3
06 11.12 ЮЗ 1 6000 м мгла {туман} 3/0
[Cs]
+31.5 +23.6 63 +43 +57 опасность
перегрева
1011.8 1010.8
09 11.12 Ю 2 7000 м мгла 3/0
[Cs]
+32.4 +22.1 55 +41 +45 опасность
перегрева
1010.2 1009.2
12 11.12 штиль 0 5000 м дымка 3/0
[Cs]
+29.3 +24.0 73 +41 +41 опасность
перегрева
1011.3 1010.3 +32.9
15 11.12 штиль 0 4000 м дымка 3/0
[Cs]
+27.5 +24.8 85 +39 +39 очень
душно
1013.2 1012.2
18 11.12 ЮЗ 1 4000 м дымка 3/0
[Cs]
+27.3 +22.9 77 +36 +36 очень
душно
1012.6 1011.6
21 11.12 штиль 0 3000 м дымка 3/0
[Cs]
+26.0 +23.4 86 +35 +35 очень
душно
1011.6 1010.6
00 12.12 штиль 0 2000 м дымка 3/0
[Cs]
+25.1 +23.5 91 +34 +34 очень
душно
1012.9 1011.9 +24.7
03 12.12 Ю 1 4000 м дымка 3/0
[Cs]
+30.0 +24.6 73 +43 +52 опасность
перегрева
1014.2 1013.2
06 12.12 ЮЗ 2 7000 м мгла 3/0
[Cs]
+32.0 +24.1 63 +44 +57 опасность
перегрева
1011.4 1010.4
09 12.12 Ю 2 8000 м мгла 3/0
[Cs]
+33.0 +23.8 59 +45 +48 опасность
перегрева
1007.9 1006.9
12 12.12 штиль 0 7000 м дымка 3/0
[Cs]
+29.6 +24.6 75 +42 +42 опасность
перегрева
1009.7 1008.7 +33.7
15 12.12 штиль 0 6000 м дымка 3/0
[Cs]
+28.2 +23.5 76 +38 +38 очень
душно
1011.6 1010.6
18 12.12 ЮЗ 2 6000 м дымка 3/0
[Cs]
+27.4 +24.5 84 +39 +39 очень
душно
1011.1 1010.1
21 12.12 штиль 0 4000 м дымка 5/0
[Ac trans Cs]
+26.6 +24.4 88 +37 +37 очень
душно
1010.3 1009.3
00 13.12 штиль 0 4000 м дымка 3/0
[Ac trans Cs]
+26.0 +24.6 92 +37 +37 очень
душно
1011.6 1010.6 +25.6
03 13.12 ЮЗ 1 6000 м дымка 3/0
[Cs]
+30.4 +25.0 73 +44 +53 опасность
перегрева
1013.0 1011.9
06 13.12 ЮВ 1 8000 м мгла 3/3 600 м
[Cu hum Cs]
+33.5 +25.4 63 +48 +59 опасность
перегрева
1009.9 1008.9
09 13.12 Ю 2 8000 м мгла 3/0
[Cs]
+33.9 +25.0 60 +48 +51 опасность
перегрева
1007.9 1006.9
12 13.12 штиль 0 6000 м дымка 3/0
[Cs]
+30.7 +24.6 70 +43 +43 опасность
перегрева
1009.1 1008.1 +34.6
15 13.12 штиль 0 5000 м дымка 3/0
[Cs]
+29.2 +26.1 83 +44 +44 опасность
перегрева
1010.7 1009.7
18 13.12 штиль 0 4000 м дымка 3/0
[Cs]
+27.7 +25.6 88 +41 +41 опасность
перегрева
1010.4 1009.4
21 13.12 штиль 0 3000 м дымка 3/0
[Cs]
+26.2 +25.2 94 +38 +38 очень
душно
1009.8 1008.8
00 14.12 штиль 0 4000 м дымка 3/0
[Cs]
+25.7 +25.0 96 +37 +37 очень
душно
1011.6 1010.5 +25.1
03 14.12 штиль 0 6000 м дымка 3/3 600 м
[Sc Cs]
+30.0 +25.8 78 +45 +53 опасность
перегрева
1013.2 1012.2
06 14.12 штиль 0 8000 м дымка 3/3 600 м
[Cu med, cong Cs]
+32.5 +25.5 67 +47 +60 опасность
перегрева
1010.6 1009.6
09 14.12 штиль 0 8000 м мгла 3/1 600 м
[Cu med, cong Cs]
+33.0 +24.9 63 +47 +51 опасность
перегрева
1008.7 1007.7
12 14.12 штиль 0 6000 м дымка 3/0
[Cs]
+30.0 +25.8 78 +45 +45 опасность
перегрева
1009.7 1008.7 +34.4
15 14.12 штиль 0 5000 м дымка 3/0
[Cs]
+27.5 +24.6 84 +39 +39 очень
душно
1011.4 1010.4
18 14.12 штиль 0 3000 м дымка 3/0
[Cs]
+26.7 +25.7 94 +39 +39 очень
душно
1011.2 1010.2
21 14.12 штиль 0 2000 м дымка 3/0
[Cs]
+26.4 +25.8 97 +39 +39 очень
душно
1010.5 1009.5
00 15.12 штиль 0 600 м туман 3/0
[Cs]
+25.2 +24.9 98 +36 +36 очень
душно
1012.1 1011.1 +24.8
03 15.12 С 1 2000 м дымка {туман} 3/0
[Cs]
+28.5 +26.4 88 +43 +53 опасность
перегрева
1013.5 1012.5
06 15.12 СВ 1 7000 м мгла {туман} 6/3 600 м
[Cu med, cong Cs]
+32.5 +24.4 62 +45 +55 опасность
перегрева
1010.6 1009.6
09 15.12 СВ 2 8000 м мгла 4/0
[Cs]
+32.7 +23.2 57 +43 +46 опасность
перегрева
1009.0 1008.0
12 15.12 СВ 1 6000 м дымка 4/0
[Cs]
+29.5 +23.1 69 +40 +40 очень
душно
1010.3 1009.3 +33.5

 

Местоположение метеостанции Suphan Buri (Таиланд): широта 14.47 долгота 100.13 высота над уровнем моря 8 м.

В архиве по умолчанию представлена погода в Suphan Buri за последнюю неделю. Архивные данные за месяц целиком и за предыдущие месяцы, начиная с января 2011 года, Вы можете получить, выбрав интересующий диапазон дат из раскрывающегося списка и нажав кнопку "Ввод!".

Внимание! Время в таблицах - всемирное. Для получения местного времени необходимо прибавить поправку, которая в Suphan Buri равна 7 ч.

Смотрите также архив погоды в соседних городах и на ближайших метеорологических станциях:

Погода в U Thong Agromet (Таиланд) (34 км)
Погода в Nakhonpathom (Таиланд) (53 км)
Погода в Lop Buri (Таиланд) (63 км)
Погода в Ayutthaya (Таиланд) (64 км)
Погода в Pathumthani (Таиланд) (67 км)
Погода в Chainat Agromet (Таиланд) (76 км)
Погода в Don Muang (Таиланд) (79 км)
Погода в Kanchanaburi (Таиланд) (82 км)
Погода в Saraburi (Таиланд) (85 км)
Погода в Bangkok (Таиланд) (94 км)

Пояснения к столбцам:

Ветер - указаны скорость ветра в м/с - средняя за 10 мин, порывы в срок и между сроками (в фигурных скобках) и направление, откуда дует ветер: С - северный, СВ - северо-восточный, В - восточный, ЮВ - юго-восточный, Ю - южный, ЮЗ - юго-западный, З - западный, СЗ - северо-западный.
Видимость - горизонтальная дальность видимости в метрах или километрах. При видимости от 1 до 10 км при отсутствии осадков обычно наблюдается дымка, при ухудшении видимости до 1 км и менее - туман. В сухую погоду видимость может ухудшаться дымом, пылью или мглою.
Явления - указаны атмосферные явления, наблюдавшиеся в срок или в последний час перед сроком; фигурными скобками обозначены явления, наблюдавшиеся между сроками (за 1-3 часа до срока); квадратными скобками обозначены град или гололедные отложения с указанием их диаметра в мм.
Облачность - указаны через наклонную черту общая и нижняя облачность в баллах и высота нижней границы облаков в метрах; квадратными скобками обозначены формы облаков: Ci - перистые, Cs - перисто-слоистые, Cc - перисто-кучевые, Ac - высококучевые, As - высокослоистые, Sc - слоисто-кучевые, Ns - слоисто-дождевые, Cu - кучевые, Cb - кучево-дождевые. Подробнее классификацию облаков см. в Атласе облаков (PDF).
T - Температура воздуха - температура, измеренная на высоте 2 м над землей.
Td - Температура точки росы - температура, при понижении до которой содержащийся в воздухе водяной пар достигнет насыщения.
f - Относительная влажность воздуха - влажноcть воздуха, измеренная на высоте 2 м над землей.
Te - Эффективная температура - температура, которую ощущает одетый по сезону человек в тени. Характеристика душности погоды. При расчете учитывается влияние влажности воздуха и скорости ветра на теплоощущения человека.
Tes - Эффективная температура на солнце - температура, которую ощущает человек, с поправкой на солнечный нагрев. Характеристика знойности погоды. Зависит от высоты солнца над горизонтом, облачности и скорости ветра. Ночью, в пасмурную погоду, а также при ветре 12 м/с и более поправка равна нулю.
P - Атмосферное давление - приведенное к уровню моря атмосферное давление.
Po - Атмосферное давление - измеренное на уровне метеостанции атмосферное давление.
Tmin - Минимальная температура - минимум температуры воздуха на высоте 2 м над землей.
Tmax - Максимальная температура - максимум температуры воздуха на высоте 2 м над землей.
R - Количество осадков - Количество выпавших осадков за период времени, мм. При наведении курсора мыши на число - период времени, за который выпало указанное количество осадков.
R24 - Количество осадков - Количество выпавших осадков за 24 часа, мм.
S - Снежный покров - Высота снежного покрова, см. При наведении курсора мыши на число - состояние снежного покрова и степень покрытия местности в баллах.